Regional Weather Roundup
Issued by NWS Sioux Falls, SD

Home | Current Version | Previous Version | Text Only | Print | Product List | Glossary Off
Versions: 1 2 3 4 5 6 7 8 9 10 11 12 13 14 15 16 17 18 19 20 21 22 23 24 25 26 27 28 29 30 31 32 33 34 35 36 37 38 39 40 41 42 43 44 45 46 47 48 49 50

000
ASUS43 KFSD 020210
RWRFSD

WEATHER ROUNDUP FOR SE SOUTH DAKOTA/SW MINNESOTA/NW IOWA
NATIONAL WEATHER SERVICE SIOUX FALLS SD
900 PM CDT MON SEP 01 2014

NOTE: "FAIR" INDICATES FEW OR NO CLOUDS BELOW 12,000 FEET WITH NO
SIGNIFICANT WEATHER AND OR OBSTRUCTIONS TO VISIBILITY.


SDZ038>040-050-052>070-020300-
SOUTHEAST SOUTH DAKOTA

CITY           SKY/WX    TMP DP  RH WIND       PRES   REMARKS
CHAMBERLAIN    CLOUDY    59  58  94 CALM      29.92R
HURON          CLOUDY    61  55  81 SW10      29.87R
MADISON        FAIR      59  57  94 NW7       29.88S
MITCHELL       LGT RAIN  63  54  72 W16G23    29.91R
SIOUX FALLS    MOCLDY    66  56  70 CALM      29.86R
WINNER         LGT RAIN  59  56  89 W12       29.93R
YANKTON        PTCLDY    66  55  68 N3        29.85S
$$

MNZ071-072-080-081-089-090-097-098-020300-
SOUTHWEST MINNESOTA

CITY           SKY/WX    TMP DP  RH WIND       PRES   REMARKS
FAIRMONT       CLEAR     61  55  82 S3        29.85R
JACKSON        CLEAR     63  59  88 S6        29.86S
LUVERNE        CLEAR     63  59  88 CALM      29.87R
MARSHALL       MOCLDY    64  55  72 W9        29.82R
MONTEVIDEO     CLOUDY    66  57  72 CALM      29.81R
PIPESTONE      PTCLDY    63  57  82 CALM      29.87R
REDWOOD FALLS  PTCLDY    68  58  70 SW8       29.81R
TRACY          PTCLDY    64  59  85 SW5       29.84R
WINDOM         CLEAR     64  57  77 W5        29.85S
WORTHINGTON    CLEAR     63  57  82 W6        29.88R
$$

IAZ001>003-012>014-020>022-031-032-NEZ013-014-SDZ071-020300-
NORTHWEST IOWA

CITY           SKY/WX    TMP DP  RH WIND       PRES   REMARKS
CHEROKEE       CLEAR     63  62  97 CALM      29.86S
DENISON        PTCLDY    66  64  94 CALM      29.86R
ESTHERVILLE    CLEAR     61  59  93 S7        29.86R
LE MARS        CLEAR     64  64 100 CALM      29.87R
ORANGE CITY    CLEAR     70  59  68 CALM      29.87S
SHELDON        CLEAR     61  59  94 CALM      29.85S
SIOUX CITY     CLEAR     68  65  90 CALM      29.86R
SPENCER        CLEAR     64  59  83 W7        29.86R
STORM LAKE     CLEAR     64  64 100 CALM      29.87S
$$

ABBREVIATIONS USED IN REMARKS
   TC - TEMPERATURE IN CELSIUS
  WCI - WIND CHILL INDEX
   HX - HEAT INDEX
  VSB - VISIBILITY



USA.gov is the U.S. government's official web portal to all federal, state and local government web resources and services.